[[{"header":{"parameterUnit":"m.s-1","parameterCategory":1,"la1":30.2991,"la2":30.254,"lo1":-89.0895,"lo2":-89.0444,"dy":0.0017,"dx":0.0017,"nx":28,"ny":28,"refTime":"2024-07-26T21:00:00:Z","depth":0,"parameterNumber":2,"parameterNumberName":"U-component_of_WINDS"},"data":[0,0,0,0,0,0,0,0,0,0,0,0,0,0,0,0,0,0,0,0,0,0,0,0,0,0,0,0,0,0,0,0,0,0,0,0,0,0,0,0,0,0,0,0,0,0,0,0,0,0,0,0,0,0,0,0,0,0,0.397,0.397,0,0.3936,0.3935,0.3935,0.385,0.3848,0.3846,0.3844,0.3814,0.3814,0.3815,0,0,0,0,0,0,0,0,0,0,0,0,0,0.3966,0.3967,0.397,0.397,0.3969,0.3936,0.3935,0.3935,0.385,0.3848,0.3846,0.3844,0.3813,0.3814,0.3815,0,0,0,0,0,0,0,0,0,0,0,0,0,0.3954,0.3967,0.397,0.3923,0.3918,0.3936,0.3935,0.3935,0.385,0.3848,0.3845,0.3843,0.3813,0.3814,0.3815,0.3877,0,0,0.3819,0.382,0,0,0,0,0,0,0,0,0.3954,0.3954,0.393,0.3926,0.3921,0.3894,0.3922,0.3916,0.3851,0.3876,0.3844,0.3841,0.3843,0.3841,0.3841,0.3876,0.3875,0.3819,0.382,0.3821,0.3821,0,0,0,0,0,0,0,0.3955,0.3955,0.3957,0.393,0.3925,0.3904,0.39,0.3921,0.3875,0.3874,0.3868,0.3865,0.384,0.384,0.384,0.3874,0.3819,0.3821,0.3821,0.3822,0.3957,0.396,0,0,0,0,0,0,0.3962,0.3956,0.3958,0.3956,0.3931,0.3907,0.3901,0.3906,0.3875,0.3867,0.3867,0.3861,0.3839,0.3838,0.3838,0.3909,0.3821,0.3822,0.3823,0.3954,0.3958,0.3961,0,0,0,0,0,0,0.3963,0.3963,0.3959,0.3954,0.3952,0.3909,0.3915,0.3906,0.3906,0.3869,0.3861,0.3875,0.3837,0.3836,0.3868,0.3907,0.3823,0.3824,0.3951,0.3956,0.3959,0.4051,0,0,0,0,0,0,0.3963,0.3964,0.3987,0.3955,0.3953,0.3989,0.3917,0.3908,0.3908,0.39,0.3875,0.3868,0.3835,0.3866,0.3869,0.3907,0.3825,0.3948,0.3953,0.3958,0.4044,0.4058,0.4069,0,0,0,0,0,0.3963,0.4015,0.3988,0.3989,0.398,0.3991,0.399,0.3949,0.3912,0.3935,0.391,0.3869,0.3901,0.387,0.3873,0.3911,0.3945,0.3952,0.3958,0.4039,0.4055,0.4069,0,0,0,0,0,0,0.4055,0.401,0.398,0.4023,0.4011,0.3977,0.4005,0.3968,0.3967,0.396,0.391,0.3905,0.3943,0.393,0.3896,0.3969,0.3916,0.3924,0.3977,0.3992,0.4005,0.4008,0.3826,0,0,0,0,0,0.4079,0.4091,0.4052,0.4094,0.4089,0.4048,0.4051,0.402,0.4007,0.4002,0.398,0.397,0.3977,0.3984,0.3989,0.4041,0.4035,0.4068,0.4081,0.4091,0.4099,0.4126,0.414,0.3982,0.3982,0.3982,0,0,0.4132,0.4109,0.412,0.4112,0.4099,0.4113,0.4045,0.4063,0.4073,0.4005,0.4033,0.4017,0.4002,0.4044,0.4061,0.4034,0.4141,0.4099,0.4108,0.411,0.4134,0.4149,0.4162,0.3986,0.3985,0.3985,0,0,0.4234,0.4218,0.425,0.4238,0.4219,0.4191,0.4199,0.4169,0.4155,0.4181,0.413,0.4142,0.4156,0.4148,0.4145,0.4242,0.4204,0.4245,0.4311,0.4338,0.435,0.4361,0.4397,0.441,0.4252,0.4252,0.4252,0,0.4303,0.4321,0.4273,0.4293,0.4292,0.4228,0.4261,0.4252,0.4236,0.4237,0.4206,0.4221,0.4206,0.4245,0.4269,0.4268,0.4277,0.4249,0.4352,0.4362,0.4372,0.4405,0.4419,0.4257,0.4256,0.4256,0.4255,0,0.4406,0.4419,0.4448,0.4432,0.4433,0.446,0.4417,0.4424,0.4392,0.4367,0.4395,0.4375,0.4374,0.438,0.435,0.4415,0.4399,0.436,0.4307,0.4393,0.4424,0.4436,0.4264,0.4263,0.4261,0.426,0,0,0.4569,0.4523,0.4535,0.4526,0.4499,0.4509,0.4533,0.453,0.4538,0.4528,0.4548,0.456,0.4523,0.452,0.4488,0.4511,0.459,0.447,0.4469,0.4494,0.4661,0.4692,0.4708,0.4563,0.4566,0.4567,0.4663,0,0.4666,0.4704,0.466,0.4707,0.4719,0.4657,0.4678,0.4664,0.4641,0.4649,0.4623,0.4633,0.4583,0.4581,0.4601,0.4576,0.4623,0.4568,0.4583,0.4585,0.4591,0.4723,0.4756,0.4847,0.4674,0.4676,0.4678,0,0.4786,0.478,0.4828,0.4796,0.48,0.4819,0.4813,0.482,0.4803,0.4784,0.478,0.474,0.4762,0.4708,0.4738,0.4702,0.4704,0.4693,0.4695,0.4698,0.4638,0.4731,0.4875,0.489,0.4696,0.4694,0.4693,0,0.4902,0.4905,0.4934,0.4929,0.4892,0.4908,0.4893,0.4873,0.4874,0.4868,0.4868,0.4866,0.4866,0.4865,0.4826,0.479,0.4862,0.4804,0.4848,0.485,0.4869,0.4869,0.5018,0.4867,0.4867,0.4867,0.4866,0,0.5017,0.5049,0.4986,0.5004,0.5038,0.4987,0.5023,0.5002,0.4984,0.4998,0.4944,0.4958,0.4904,0.4913,0.4883,0.4913,0.4913,0.49,0.4892,0.4906,0.4908,0.4909,0.4903,0.487,0.4869,0.4869,0.4868,0,0.5153,0.5112,0.514,0.5101,0.5092,0.512,0.5087,0.5103,0.5075,0.5093,0.5094,0.5051,0.5059,0.5019,0.502,0.4999,0.5045,0.5025,0.5051,0.5046,0.5093,0.509,0.5251,0.527,0.5105,0.5107,0.5108,0,0.5231,0.5254,0.5217,0.5222,0.5209,0.5217,0.5217,0.5167,0.5169,0.515,0.5169,0.5171,0.517,0.5185,0.5155,0.5155,0.5136,0.5192,0.5136,0.515,0.5139,0.5139,0.5142,0.5205,0.5207,0.5209,0.521,0,0.5373,0.5351,0.5352,0.5346,0.5346,0.534,0.5329,0.5336,0.5282,0.5287,0.5293,0.5292,0.5291,0.5295,0.5289,0.5275,0.5235,0.5227,0.5238,0.5254,0.5269,0.5263,0.5085,0.5225,0.5223,0.5222,0.5221,0.5221,0.5483,0.5501,0.5477,0.548,0.5466,0.5458,0.547,0.5442,0.5446,0.5441,0.541,0.5422,0.5403,0.5389,0.5379,0.5388,0.5362,0.5377,0.5381,0.5387,0.5396,0.5265,0.5387,0.5386,0.5386,0.5385,0.5385,0,0.5624,0.5605,0.5608,0.5594,0.5597,0.5554,0.554,0.5546,0.5556,0.5541,0.554,0.5547,0.555,0.5518,0.5517,0.553,0.5512,0.5532,0.5532,0.553,0.5419,0.541,0.5547,0.5547,0.5547,0.5547,0.5547,0.5547,0.5698,0.5726,0.57,0.572,0.5701,0.5711,0.5706,0.5698,0.5685,0.5694,0.5695,0.5674,0.5652,0.5648,0.5649,0.564,0.5643,0.567,0.5655,0.5553,0.5537,0.5522,0.5514,0.5671,0.5671,0.5765,0.5766,0.5767]},{"header":{"parameterUnit":"m.s-1","parameterCategory":1,"la1":30.2991,"la2":30.254,"lo1":-89.0895,"lo2":-89.0444,"dy":0.0017,"dx":0.0017,"nx":28,"ny":28,"refTime":"2024-07-26T21:00:00:Z","depth":0,"parameterNumber":3,"parameterNumberName":"V-component_of_WINDS"},"data":[0,0,0,0,0,0,0,0,0,0,0,0,0,0,0,0,0,0,0,0,0,0,0,0,0,0,0,0,0,0,0,0,0,0,0,0,0,0,0,0,0,0,0,0,0,0,0,0,0,0,0,0,0,0,0,0,0,0,3.0995,3.0996,0,3.1119,3.1121,3.1122,3.1134,3.1133,3.1132,3.113,3.1256,3.126,3.1265,0,0,0,0,0,0,0,0,0,0,0,0,0,3.0763,3.0767,3.0994,3.0996,3.0998,3.1119,3.1121,3.1122,3.1134,3.1133,3.1131,3.113,3.1254,3.126,3.1265,0,0,0,0,0,0,0,0,0,0,0,0,0,3.0873,3.0768,3.0994,3.1018,3.1022,3.1119,3.1121,3.1123,3.1135,3.1133,3.1131,3.1129,3.1253,3.1259,3.1266,3.1347,0,0,3.1287,3.129,0,0,0,0,0,0,0,0,3.0867,3.0881,3.1013,3.1017,3.1021,3.1109,3.1085,3.1198,3.1135,3.1092,3.113,3.1128,3.1208,3.1219,3.1246,3.1353,3.1358,3.1287,3.1291,3.1294,3.1296,0,0,0,0,0,0,0,3.0859,3.0876,3.1044,3.1015,3.102,3.1021,3.1035,3.1106,3.1159,3.1095,3.1096,3.1111,3.121,3.124,3.1249,3.136,3.1287,3.1293,3.1297,3.13,3.1536,3.1538,0,0,0,0,0,0,3.0847,3.087,3.104,3.1047,3.0937,3.1027,3.1042,3.1083,3.1159,3.1168,3.1113,3.1111,3.1229,3.1241,3.1254,3.1351,3.1294,3.1301,3.1305,3.1533,3.1536,3.1538,0,0,0,0,0,0,3.0842,3.0862,3.1035,3.0959,3.0981,3.1033,3.1078,3.1086,3.1116,3.1172,3.1181,3.1134,3.1228,3.1244,3.1323,3.1356,3.1304,3.131,3.1531,3.1534,3.1537,3.1549,0,0,0,0,0,0,3.0836,3.0861,3.0893,3.096,3.0985,3.1103,3.1081,3.109,3.1128,3.1127,3.1194,3.1203,3.1228,3.1313,3.133,3.1364,3.1315,3.1528,3.1532,3.1536,3.1545,3.1552,3.1557,0,0,0,0,0,3.0827,3.0891,3.0895,3.0915,3.1027,3.1105,3.1119,3.1147,3.1131,3.1163,3.1198,3.1201,3.135,3.1321,3.134,3.1377,3.1526,3.1531,3.1536,3.1543,3.1551,3.1557,0,0,0,0,0,0,3.0827,3.0901,3.0905,3.0993,3.1043,3.1107,3.1149,3.1155,3.121,3.1207,3.1239,3.1254,3.1331,3.1362,3.1328,3.1458,3.1436,3.1445,3.1435,3.1443,3.1448,3.1439,3.1321,0,0,0,0,0,3.0838,3.0896,3.0957,3.1028,3.1053,3.1096,3.1131,3.1148,3.1201,3.1222,3.1263,3.1313,3.1371,3.1409,3.1465,3.155,3.1563,3.1585,3.1591,3.1595,3.1602,3.1647,3.1656,3.1554,3.1554,3.1554,0,0,3.0859,3.0907,3.0942,3.1029,3.107,3.1128,3.1114,3.1177,3.122,3.1231,3.1308,3.134,3.1398,3.1479,3.1517,3.1507,3.1633,3.1602,3.1605,3.1609,3.1653,3.1662,3.1671,3.1558,3.1557,3.1557,0,0,3.0928,3.0971,3.1034,3.1074,3.1136,3.1164,3.1179,3.1242,3.1263,3.1341,3.135,3.1401,3.1501,3.1541,3.1574,3.1655,3.1659,3.1673,3.1703,3.1746,3.1754,3.1761,3.1788,3.1797,3.168,3.168,3.168,0,3.0947,3.1036,3.1065,3.1127,3.1164,3.1177,3.124,3.1278,3.1354,3.1379,3.1367,3.1491,3.1531,3.1621,3.164,3.1668,3.1684,3.1665,3.175,3.1758,3.1765,3.1791,3.1801,3.1681,3.1681,3.1681,3.168,0,3.1055,3.1117,3.116,3.1233,3.1275,3.1337,3.1374,3.1413,3.1426,3.1454,3.1531,3.1579,3.1645,3.1667,3.1681,3.1758,3.175,3.1744,3.1723,3.1775,3.18,3.181,3.1682,3.1682,3.1682,3.1681,0,0,3.1129,3.1216,3.1231,3.1263,3.1331,3.1378,3.1439,3.1503,3.1535,3.1587,3.1638,3.172,3.1715,3.1752,3.177,3.1808,3.1866,3.1797,3.1799,3.1807,3.1951,3.1954,3.1965,3.1869,3.1871,3.1873,3.1946,0,3.1204,3.1315,3.1341,3.1435,3.1491,3.1503,3.1556,3.1602,3.163,3.168,3.171,3.1768,3.1757,3.1779,3.1818,3.1851,3.1895,3.1846,3.1915,3.1917,3.1899,3.1979,3.1983,3.2049,3.1956,3.1957,3.1959,0,3.1307,3.136,3.146,3.1517,3.1542,3.1589,3.1648,3.1697,3.1748,3.1766,3.1807,3.182,3.1882,3.1858,3.1943,3.1909,3.1938,3.1959,3.1962,3.1968,3.194,3.1985,3.2071,3.208,3.1974,3.1973,3.1972,0,3.1348,3.1445,3.1516,3.1543,3.1613,3.1646,3.1676,3.1726,3.1762,3.1813,3.1836,3.1894,3.1925,3.1969,3.1997,3.1977,3.2079,3.2057,3.2093,3.2092,3.2113,3.2112,3.2203,3.2135,3.2135,3.2135,3.2134,0,3.1429,3.1488,3.1535,3.1579,3.1645,3.1674,3.1739,3.1769,3.1813,3.1861,3.1875,3.192,3.1955,3.2004,3.2026,3.2091,3.2106,3.212,3.2125,3.2118,3.2116,3.2137,3.2133,3.2137,3.2137,3.2136,3.2136,0,3.1486,3.152,3.1597,3.1656,3.1672,3.1719,3.1768,3.181,3.1838,3.1899,3.1914,3.1957,3.2016,3.2048,3.2121,3.2136,3.2208,3.2212,3.2191,3.2193,3.2226,3.2221,3.2334,3.2349,3.2271,3.2272,3.2273,0,3.1534,3.158,3.1643,3.1677,3.1708,3.1762,3.1798,3.1827,3.1864,3.1925,3.1959,3.2018,3.2067,3.2159,3.2196,3.2251,3.2255,3.229,3.2263,3.2254,3.2253,3.2249,3.2253,3.2294,3.2295,3.2296,3.2296,0,3.1616,3.163,3.1682,3.1739,3.1782,3.1828,3.1874,3.19,3.1937,3.1977,3.2037,3.2075,3.2149,3.2206,3.2264,3.2294,3.23,3.2304,3.2315,3.2308,3.2293,3.23,3.2202,3.2301,3.2301,3.2301,3.23,3.23,3.1669,3.171,3.176,3.1816,3.1854,3.1896,3.1937,3.1969,3.2019,3.2082,3.2096,3.2158,3.2206,3.2284,3.2315,3.2363,3.2356,3.2373,3.2377,3.238,3.238,3.2287,3.2374,3.2374,3.2374,3.2374,3.2374,0,3.175,3.1782,3.1834,3.1897,3.1941,3.1944,3.1994,3.203,3.2085,3.2129,3.2176,3.2243,3.2298,3.2339,3.2395,3.2425,3.2429,3.2439,3.2436,3.2442,3.2384,3.2368,3.2434,3.2434,3.2434,3.2434,3.2434,3.2434,3.1797,3.1865,3.1884,3.1969,3.2001,3.2062,3.209,3.2128,3.2163,3.2238,3.2283,3.231,3.2352,3.241,3.246,3.247,3.249,3.2498,3.2508,3.2453,3.2447,3.244,3.2426,3.2503,3.2503,3.2563,3.2563,3.2563]}]]